Location: 22
(39.7117°N, 89.5929°W)
Time: 05:22:46
(UTC-05:00)

Vanguard 1 Rocket - Pass Details

Date: 13 February 2023
Orbit: 652 x 4223 km, 34.3° (Epoch: 26 March)

Event Time Altitude Azimuth Distance (km) Brightness Sun altitude
Rises 16:29:20 0° 277° (W) 5,689 12.5 10.4°
Reaches altitude 10° 16:33:09 10° 267° (W) 5,136 12.7 9.7°
Maximum altitude 16:46:24 31° 213° (SSW) 4,875 12.1 7.4°
Drops below altitude 10° 17:05:40 10° 162° (SSE) 7,367 12.1 4.0°
Sets 17:12:58 0° 154° (SSE) 8,453 12.3 2.7°
